Find Qianfan Jigui 01-05

NORAD ID: 60383 Int'l Des: 2024-140 Owner: YUANX Country: CN Constellation: qianfan operational
LEOCIRCULARPOLAR

实时位置

正在加载3D地球...

关于 Qianfan Jigui 01-05

正在加载描述...

即将过境

Passes for default location (London). Set your location on the main map for personalized predictions.

高度历史

Loading altitude history...

两行轨道根数

1 60383U 24140E 26106.25524337 .00000034 00000-0 34730-4 0 9995
2 60383 88.9656 286.3422 0014402 204.9008 155.1450 13.51005245 84116
Epoch: Apr 16, 2026 • Age: 6 hours

当前状态

高度 1081.8 km
速度 7.32 km/s
星下点 70.75°N, 78.74°E
发射日期 Aug 6, 2024
运行时间 1.6 years
类型 internet

技术详情

分类 Payload
质量 267.00 kg
干质量 267.00 kg
总质量 267.00 kg
长度 0.30 m
直径 3.00 m
跨度 10.00 m
形状 Box+pan
制造商 SECM
平台类型 Qianfan
阶段状态 In Orbit
所有者/国家 YUANX/CN

Most Searched